Find Starlink 34752

NORAD ID: 66153 Int'l Des: 2025-240 Owner: SPXS Country: US Constellation: starlink operational
LEOCIRCULAR

現在のビュー

3D地球を読み込み中...

About Starlink 34752

Starlink 34752 (NORAD 66153) is a starlink constellation satellite (v2 mini) launched Oct 25, 2025 by SPXS of US. It operates in LEO, CIRCULAR orbit with a mass of 575.00 kg.

次回通過

Passes for default location (London). Set your location on the main map for personalized predictions.

高度履歴

Loading altitude history...

軌道要素

1 66153U 25240H 26264.62306959 .00011892 00000-0 36265-3 0 9990
2 66153 53.1568 228.6895 0003041 83.9201 276.2148 15.34389666 52044
Epoch: Sep 21, 2026 • Age: 14 hours

現在のステータス

高度 463.7 km
遠地点 / 近地点 N/A
速度 7.64 km/s
衛星直下点 -1.20°S, 148.73°E
打ち上げ日 Oct 25, 2025
運用期間 0.9 years
タイプ internet

技術仕様

分類 Payload
質量 575.00 kg
乾燥質量 530.00 kg
長さ 0.30 m
スパン 29.00 m
形状 ? Box + pan
製造者 SPXS
バスタイプ Starlink V2MO
フェーズステータス In Orbit
所有者/国 SPXS/US

Most Searched